Boscobel, WI

1:17 AM CDT on April 27, 2017 (GMT -0500)
Boscobel

Weather History for KOVS - January, 2013

Change the Weather History Date:

Saturday, January 12, 2013

  Actual Average (KPDC) Record (KPDC)
Temperature  
Mean Temperature 35 °F -  
Max Temperature 51 °F 25 °F 50 °F (1987)
Min Temperature 19 °F 6 °F -26 °F (1977)
Degree Days  
Heating Degree Days 30    
Moisture  
Dew Point 20 °F    
Average Humidity 68    
Maximum Humidity 80    
Minimum Humidity 61    
Precipitation  
Precipitation 0.00 in - - ()
Sea Level Pressure  
Sea Level Pressure 29.90 in    
Wind  
Wind Speed 12 mph (WSW)    
Max Wind Speed 22 mph    
Max Gust Speed 36 mph    
Visibility 10 miles    
Events      
Averages and records for this station are not official NWS values.
T = Trace of Precipitation, MM = Missing Value Source: NWS Daily Summary

Daily Weather History Graph

Daily Weather History Graph

Search for Another Location

Airport or City:

Trip Planner

Search our weather history database for the weather conditions in past years. The results will help you decide how hot, cold, wet, or windy it might be!

Date:

Astronomy

Jan. 12, 2013 Rise Set
Actual Time 7:32 AM CST 4:49 PM CST
Civil Twilight 7:01 AM CST 5:21 PM CST
Nautical Twilight 6:25 AM CST 5:56 PM CST
Astronomical Twilight 5:51 AM CST 6:31 PM CST
Moon 7:49 AM CST (1/12) 6:22 PM CST (1/12)
Length of Visible Light 10h 20m
Length of Day
9h 17m
New Moon, 1% of the Moon is Illuminated
Jan 12
New Moon
Jan 18
First Quarter
Jan 26
Full
Feb 3
Last Quarter
Feb 10
New

Hourly Weather History & Observations

Time (CST) Temp. Windchill Dew Point Humidity Pressure Visibility Wind Dir Wind Speed Gust Speed Precip Events Conditions
12:53 AM 48.0 °F - 42.1 °F 80% 29.55 in 10.0 mi SW 5.8 mph - N/A   Clear
1:53 AM 51.1 °F - 42.1 °F 71% 29.56 in 10.0 mi SSW 15.0 mph 23.0 mph N/A   Scattered Clouds
2:53 AM 50.0 °F - 41.0 °F 71% 29.58 in 10.0 mi SSW 13.8 mph 21.9 mph N/A   Scattered Clouds
3:53 AM 48.9 °F - 39.9 °F 71% 29.62 in 10.0 mi WSW 16.1 mph 26.5 mph N/A   Mostly Cloudy
4:19 AM 46.4 °F 38.5 °F 39.2 °F 76% 29.63 in 10.0 mi SW 21.9 mph 35.7 mph N/A   Overcast
4:53 AM 42.1 °F 33.9 °F 35.1 °F 76% 29.69 in 10.0 mi WSW 17.3 mph 34.5 mph N/A   Overcast
5:53 AM 36.0 °F 25.6 °F 28.9 °F 76% 29.76 in 10.0 mi WSW 18.4 mph 29.9 mph N/A   Overcast
6:53 AM 33.1 °F 21.9 °F 26.1 °F 75% 29.81 in 10.0 mi WSW 18.4 mph 31.1 mph N/A   Overcast
7:53 AM 30.0 °F 17.5 °F 21.9 °F 72% 29.87 in 10.0 mi WSW 19.6 mph 27.6 mph N/A   Overcast
8:24 AM 28.4 °F 15.8 °F 19.4 °F 69% 29.87 in 10.0 mi West 18.4 mph 31.1 mph N/A   Partly Cloudy
8:53 AM 27.0 °F 13.9 °F 17.1 °F 66% 29.92 in 10.0 mi SW 18.4 mph 27.6 mph N/A   Scattered Clouds
9:08 AM 26.6 °F 15.7 °F 17.6 °F 69% 29.89 in 10.0 mi SW 12.7 mph 21.9 mph N/A   Mostly Cloudy
9:15 AM 26.6 °F 15.2 °F 15.8 °F 64% 29.90 in 10.0 mi West 13.8 mph 21.9 mph N/A   Scattered Clouds
9:53 AM 26.1 °F 15.0 °F 15.1 °F 63% 29.95 in 10.0 mi WSW 12.7 mph 24.2 mph N/A   Clear
10:53 AM 27.0 °F 14.3 °F 16.0 °F 63% 29.96 in 10.0 mi West 17.3 mph 23.0 mph N/A   Clear
11:53 AM 27.0 °F 18.7 °F 16.0 °F 63% 29.95 in 10.0 mi West 8.1 mph 17.3 mph N/A   Clear
12:53 PM 28.0 °F 18.6 °F 16.0 °F 61% 29.96 in 10.0 mi WSW 10.4 mph 18.4 mph N/A   Clear
1:53 PM 27.0 °F 15.6 °F 15.1 °F 61% 29.99 in 10.0 mi SW 13.8 mph 19.6 mph N/A   Clear
2:53 PM 26.1 °F 15.6 °F 15.1 °F 63% 29.99 in 10.0 mi West 11.5 mph - N/A   Partly Cloudy
3:23 PM 26.6 °F 19.1 °F 15.8 °F 64% 29.98 in 10.0 mi WSW 6.9 mph - N/A   Mostly Cloudy
3:53 PM 26.1 °F 17.6 °F 16.0 °F 66% 30.02 in 10.0 mi WSW 8.1 mph 17.3 mph N/A   Scattered Clouds
4:53 PM 24.1 °F 14.4 °F 14.0 °F 65% 30.04 in 10.0 mi WSW 9.2 mph - N/A   Clear
5:53 PM 23.0 °F 15.8 °F 12.9 °F 65% 30.03 in 10.0 mi West 5.8 mph - N/A   Clear
6:45 PM 23.0 °F 13.9 °F 12.2 °F 63% 30.00 in 10.0 mi WNW 8.1 mph - N/A   Mostly Cloudy
7:20 PM 23.0 °F 13.9 °F 12.2 °F 63% 30.03 in 10.0 mi WNW 8.1 mph - N/A   Mostly Cloudy
7:53 PM 21.9 °F 11.0 °F 12.0 °F 66% 30.04 in 10.0 mi WNW 10.4 mph - N/A   Partly Cloudy
8:46 PM 21.2 °F 11.7 °F 12.2 °F 68% 30.03 in 10.0 mi WNW 8.1 mph - N/A   Mostly Cloudy
8:53 PM 21.9 °F 15.7 °F 12.0 °F 66% 30.06 in 10.0 mi Variable 4.6 mph - N/A   Overcast
9:53 PM 21.0 °F 12.4 °F 12.0 °F 68% 30.06 in 10.0 mi West 6.9 mph - N/A   Overcast
10:40 PM 19.4 °F 10.4 °F 10.4 °F 68% 29.99 in 10.0 mi WNW 6.9 mph - N/A   Mostly Cloudy
10:53 PM 19.9 °F 11.1 °F 10.0 °F 65% 30.02 in 10.0 mi NW 6.9 mph - N/A   Mostly Cloudy
11:14 PM 19.4 °F 9.5 °F 10.4 °F 68% 30.02 in 10.0 mi West 8.1 mph - N/A   Mostly Cloudy
11:53 PM 19.9 °F 11.1 °F 10.0 °F 65% 30.06 in 10.0 mi NW 6.9 mph - N/A   Overcast